EW5761 Weather Reports


time (UTC)temp
C
wind
direction
speed
KPH
gust
KPH
rain 1hr
cm
rain 24hr
cm
rain mn
cm
humidity
%
barometer
mb
20260507113331 20 259 0.0 8.0 0.00 0.00 0.00 67 1015.8
20260507112345 20 273 0.0 4.8 0.00 0.00 0.00 66 1015.6
20260507111341 20 347 1.6 3.2 0.00 0.00 0.00 64 1015.8
20260507110337 20 267 0.0 1.6 0.00 0.00 0.00 66 1015.8
20260507105329 20 90 0.0 6.4 0.00 0.00 0.00 65 1015.8
20260507104359 20 131 0.0 1.6 0.00 0.00 0.00 65 1015.8
20260507103328 20 101 0.0 6.4 0.00 0.00 0.00 65 1015.9
20260507102334 20 198 1.6 4.8 0.00 0.00 0.00 64 1015.9
20260507101333 20 134 0.0 4.8 0.00 0.00 0.00 64 1015.8
20260507100341 20 122 0.0 4.8 0.00 0.00 0.00 65 1015.7
20260507095342 20 133 0.0 4.8 0.00 0.00 0.00 64 1015.8
20260507094336 20 109 1.6 3.2 0.00 0.00 0.00 64 1015.8
20260507093327 20 128 0.0 8.0 0.00 0.00 0.00 67 1015.7
20260507092336 20 146 0.0 4.8 0.00 0.00 0.00 66 1015.8
20260507091336 20 120 0.0 3.2 0.00 0.00 0.00 66 1015.6
20260507090326 20 304 0.0 4.8 0.00 0.00 0.00 66 1015.5
20260507085343 20 106 0.0 3.2 0.00 0.00 0.00 66 1015.3
20260507084333 20 107 0.0 4.8 0.00 0.00 0.00 61 1015.3
20260507083326 20 150 0.0 3.2 0.00 0.00 0.00 60 1015.1
20260507082339 20 112 0.0 1.6 0.00 0.00 0.00 60 1015.1
20260507081356 20 158 0.0 6.4 0.00 0.00 0.00 62 1015.1
20260507080342 20 287 0.0 1.6 0.00 0.00 0.00 63 1015.1
20260507075329 20 124 0.0 3.2 0.00 0.00 0.00 62 1015.2
20260507074347 20 92 1.6 6.4 0.00 0.00 0.00 64 1015.2
20260507073341 20 284 0.0 4.8 0.00 0.00 0.00 61 1015.4
20260507072342 20 114 0.0 3.2 0.00 0.00 0.00 60 1015.4
20260507071333 19 330 0.0 0.0 0.00 0.00 0.00 62 1015.4
20260507070351 17 129 0.0 0.0 0.00 0.00 0.00 63 1015.5
20260507065338 17 301 0.0 0.0 0.00 0.00 0.00 64 1015.4
20260507064334 17 332 0.0 4.8 0.00 0.00 0.00 56 1015.2
20260507063351 18 321 1.6 4.8 0.00 0.00 0.00 61 1015.3
20260507062327 17 295 0.0 3.2 0.00 0.00 0.00 60 1015.3
20260507061343 16 355 0.0 8.0 0.00 0.00 0.00 64 1015.2
20260507060332 16 13 1.6 8.0 0.00 0.00 0.00 63 1015.0
20260507055402 15 281 1.6 9.7 0.00 0.00 0.00 65 1015.0
20260507054339 15 323 3.2 12.9 0.00 0.00 0.00 65 1014.7
20260507053328 15 15 3.2 8.0 0.00 0.00 0.00 70 1014.6
20260507052343 15 311 0.0 6.4 0.00 0.00 0.00 69 1014.4
20260507051343 15 229 1.6 12.9 0.00 0.00 0.00 69 1014.3
20260507050332 14 278 1.6 8.0 0.00 0.00 0.00 74 1014.1
20260507045339 13 316 1.6 11.3 0.00 0.00 0.00 75 1013.9
20260507044357 13 110 1.6 6.4 0.00 0.00 0.00 74 1013.8
20260507043333 13 105 3.2 17.7 0.00 0.00 0.00 74 1013.8
20260507042347 13 262 1.6 9.7 0.00 0.00 0.00 75 1013.6
20260507041342 13 85 3.2 9.7 0.00 0.00 0.00 73 1013.5
20260507040338 13 204 3.2 16.1 0.00 0.00 0.00 73 1013.7
20260507035327 13 314 1.6 9.7 0.00 0.00 0.00 75 1013.8
20260507034343 13 346 3.2 14.5 0.00 0.00 0.00 75 1013.9
20260507033330 13 139 1.6 11.3 0.00 0.00 0.00 75 1013.7
20260507032403 13 30 3.2 17.7 0.00 0.00 0.00 74 1013.6
20260507031338 13 266 4.8 12.9 0.00 0.00 0.00 74 1013.8
20260507030354 13 70 3.2 19.3 0.00 0.00 0.00 74 1013.8
20260507025343 13 248 4.8 20.9 0.00 0.00 0.00 73 1013.8
20260507024340 13 347 3.2 14.5 0.00 0.00 0.00 73 1013.9
20260507023334 13 65 3.2 9.7 0.00 0.00 0.00 72 1013.9
20260507022341 13 16 3.2 9.7 0.00 0.00 0.00 72 1013.9
20260507021338 13 238 3.2 11.3 0.00 0.00 0.00 73 1013.8
20260507020326 13 322 1.6 6.4 0.00 0.00 0.00 73 1013.8
20260507015343 13 209 3.2 9.7 0.00 0.00 0.00 72 1013.7
20260507014359 13 233 3.2 12.9 0.00 0.00 0.00 71 1013.5
20260507013356 13 200 3.2 11.3 0.00 0.00 0.00 71 1013.4
20260507012342 13 235 3.2 20.9 0.00 0.00 0.00 71 1013.5
20260507011328 13 286 1.6 9.7 0.00 0.00 0.00 73 1013.5
20260507010343 13 73 3.2 14.5 0.00 0.99 0.00 72 1013.4
20260507005342 13 301 1.6 9.7 0.00 0.99 0.00 72 1013.6
20260507004339 13 96 3.2 8.0 0.00 0.99 0.00 73 1013.6
20260507003331 13 324 1.6 14.5 0.00 0.99 0.00 72 1013.8
20260507002337 13 136 3.2 17.7 0.00 0.99 0.00 72 1013.6
20260507001335 13 203 1.6 8.0 0.00 0.99 0.00 72 1013.7
20260507000331 13 143 0.0 8.0 0.00 1.50 0.00 72 1013.7
20260506235345 13 98 1.6 6.4 0.00 1.50 0.00 71 1013.7
20260506234343 13 133 3.2 9.7 0.00 1.50 0.00 72 1013.8
20260506233340 12 169 1.6 4.8 0.00 1.50 0.00 74 1013.7
20260506232339 12 138 0.0 4.8 0.00 1.50 0.00 77 1013.7
20260506231335 12 140 0.0 3.2 0.00 1.50 0.00 78 1013.9
20260506230334 12 295 0.0 0.0 0.00 2.31 0.00 81 1013.9
20260506225334 12 224 0.0 0.0 0.00 2.31 0.00 81 1013.7
20260506224336 12 221 0.0 0.0 0.00 2.31 0.00 79 1013.7
20260506223335 12 262 0.0 0.0 0.00 2.31 0.00 79 1013.8
20260506222341 12 243 0.0 0.0 0.00 2.31 0.00 77 1013.8
20260506221340 13 248 0.0 0.0 0.00 2.31 0.00 76 1013.7
20260506220338 13 235 0.0 0.0 0.00 2.49 0.46 74 1013.7
20260506215327 13 212 0.0 0.0 0.00 2.49 0.46 73 1013.7
20260506214339 13 220 0.0 6.4 0.00 2.49 0.46 71 1013.5
20260506213329 13 227 0.0 4.8 0.00 2.49 0.46 70 1013.5
20260506212334 13 203 0.0 3.2 0.00 2.49 0.46 72 1013.4
20260506211351 14 150 0.0 6.4 0.00 2.49 0.46 69 1013.4
20260506210347 14 126 3.2 6.4 0.00 2.59 0.46 66 1013.4
20260506205340 14 223 0.0 8.0 0.00 2.59 0.46 65 1013.6
20260506204334 15 117 1.6 8.0 0.00 2.59 0.46 62 1013.5
20260506203344 15 103 1.6 9.7 0.00 2.59 0.46 59 1013.3
20260506202354 14 333 3.2 11.3 0.00 2.59 0.46 58 1013.4
20260506201343 14 75 1.6 9.7 0.00 2.59 0.46 62 1013.3
20260506200336 14 122 3.2 11.3 0.00 3.00 0.46 63 1013.0
20260506195333 14 186 4.8 30.6 0.00 3.00 0.46 64 1013.1
20260506194403 14 198 3.2 9.7 0.00 3.00 0.46 67 1012.9
20260506193326 14 136 1.6 8.0 0.00 3.00 0.46 69 1012.7
20260506192342 14 175 1.6 11.3 0.00 3.00 0.46 71 1012.6
20260506191331 14 105 1.6 8.0 0.00 3.00 0.46 71 1012.5
20260506190343 14 334 3.2 8.0 0.00 3.40 0.46 71 1012.2
20260506185359 14 166 1.6 6.4 0.00 3.40 0.46 70 1012.3
20260506184352 13 142 0.0 4.8 0.00 3.40 0.46 71 1012.4
20260506183328 13 179 0.0 0.0 0.00 3.40 0.46 73 1012.3
20260506182342 14 132 0.0 3.2 0.00 3.40 0.46 72 1012.2
20260506181341 15 147 0.0 1.6 0.00 3.40 0.46 69 1012.1
20260506180330 15 170 0.0 3.2 0.00 4.80 0.46 70 1012.0
20260506175346 15 226 0.0 0.0 0.00 4.80 0.46 77 1012.0
20260506174345 16 297 0.0 0.0 0.00 4.80 0.46 74 1012.0
20260506173330 16 18 0.0 4.8 0.00 4.80 0.46 71 1012.0
20260506172406 16 137 0.0 4.8 0.00 4.80 0.46 68 1011.8
20260506171343 16 135 3.2 11.3 0.00 4.80 0.46 65 1011.7
20260506170330 16 226 3.2 17.7 0.00 4.80 0.46 65 1011.7
20260506165342 16 202 1.6 11.3 0.00 4.80 0.46 64 1011.8
20260506164330 16 113 1.6 8.0 0.00 4.80 0.46 64 1011.8
20260506163329 16 117 1.6 9.7 0.00 4.80 0.46 63 1011.7
20260506162358 16 352 1.6 9.7 0.00 4.80 0.46 64 1011.8
20260506161336 16 221 3.2 6.4 0.00 4.80 0.46 64 1011.9
20260506160332 17 204 1.6 6.4 0.00 4.80 0.46 67 1011.9
20260506155338 17 102 1.6 8.0 0.00 4.80 0.46 71 1011.9
20260506154336 17 201 1.6 9.7 0.00 4.80 0.46 70 1011.9
20260506153350 17 181 3.2 12.9 0.00 4.80 0.46 69 1012.0
20260506152341 17 317 1.6 11.3 0.00 4.80 0.46 72 1011.7
20260506151339 17 49 1.6 12.9 0.00 4.80 0.46 73 1011.9
20260506150335 17 131 1.6 8.0 0.00 5.41 0.46 74 1011.9
20260506144337 17 172 1.6 9.7 0.00 5.41 0.46 79 1011.8
20260506143333 17 108 1.6 16.1 0.00 5.41 0.46 80 1011.9
20260506142350 17 318 1.6 17.7 0.00 5.41 0.46 81 1011.8
20260506141402 17 113 1.6 6.4 0.00 5.41 0.46 82 1011.9
20260506140330 17 94 1.6 8.0 0.00 5.41 0.46 82 1011.8
20260506135345 17 186 1.6 14.5 0.00 5.41 0.46 83 1011.9
20260506134343 17 37 3.2 9.7 0.00 5.41 0.46 82 1012.0
20260506133330 18 161 1.6 8.0 0.00 5.41 0.46 80 1012.0
20260506132404 18 214 1.6 6.4 0.00 5.41 0.46 77 1012.1
20260506131331 18 96 0.0 14.5 0.00 5.41 0.46 79 1012.1
20260506130403 19 98 1.6 9.7 0.00 5.51 0.46 78 1012.0
20260506125342 19 111 0.0 0.0 0.00 5.51 0.46 80 1012.0
20260506124342 19 147 0.0 0.0 0.00 5.51 0.46 83 1012.1
20260506123349 19 46 0.0 0.0 0.00 5.51 0.46 81 1012.2
20260506122407 19 131 0.0 0.0 0.00 5.51 0.46 82 1012.1
20260506121336 18 113 0.0 0.0 0.00 5.51 0.46 84 1012.2
20260506120325 18 113 0.0 0.0 0.00 6.60 0.46 85 1012.1
20260506115337 18 317 0.0 0.0 0.00 6.60 0.46 84 1012.1
20260506114337 18 105 0.0 0.0 0.00 6.60 0.46 84 1012.0